Location: Igon
(43.1667°N, 0.2333°W)
Time: 14:22:30
(UTC+00:00)

Cosmos 1437 Rocket - Pass Details

Date: 29 November 2020
Orbit: 504 x 563 km, 81.2° (Epoch: 23 January)

Event Time Altitude Azimuth Distance (km) Brightness Sun altitude
Rises 06:10:50 0° 348° (NNW) 2,626 6.0 -10.8°
Reaches altitude 10° 06:12:59 10° 347° (NNW) 1,731 5.0 -10.5°
Maximum altitude 06:16:45 75° 262° (W) 527 2.6 -9.8°
Drops below altitude 10° 06:20:30 10° 177° (S) 1,711 5.7 -9.2°
Sets 06:22:37 0° 175° (S) 2,592 6.6 -8.8°
